CDT,Max TemperatureF,Mean TemperatureF,Min TemperatureF,Max Dew PointF,MeanDew PointF,Min DewpointF,Max Humidity, Mean Humidity, Min Humidity, Max Sea Level PressureIn, Mean Sea Level PressureIn, Min Sea Level PressureIn, Max VisibilityMiles, Mean VisibilityMiles, Min VisibilityMiles, Max Wind SpeedMPH, Mean Wind SpeedMPH, Max Gust SpeedMPH,PrecipitationIn, CloudCover, Events, WindDirDegrees
2013-10-1,78,63,48,51,42,32,72,46,20,29.98,29.90,29.70,10,10,10,23,7,29,0.00,0,,3
2013-10-2,84,67,49,63,56,42,87,65,43,29.96,29.86,29.77,10,9,1,21,9,26,1.17,5,Rain-Thunderstorm,149
2013-10-3,68,61,54,61,57,54,100,87,73,29.83,29.80,29.72,10,8,0,26,8,35,0.13,5,Fog-Rain-Thunderstorm,37
2013-10-4,79,60,41,66,57,32,97,80,62,29.86,29.71,29.55,10,9,2,31,15,39,0.64,6,Rain-Thunderstorm,114
2013-10-5,47,43,39,39,33,30,92,75,58,29.86,29.82,29.77,10,10,7,29,18,36,0.03,6,Rain,253
2013-10-6,60,51,42,43,39,30,89,61,33,30.07,29.91,29.77,10,10,5,31,16,37,T,6,Rain,310
2013-10-7,76,57,38,45,40,35,85,56,27,30.08,30.01,29.91,10,10,10,20,8,24,0.00,0,,223
2013-10-8,79,66,52,45,41,38,59,43,27,29.90,29.85,29.78,10,10,10,29,19,37,0.00,0,,178
2013-10-9,79,67,55,51,48,46,72,52,32,29.94,29.89,29.84,10,10,10,25,13,32,0.00,0,,152
2013-10-10,80,69,57,56,54,51,80,63,45,29.91,29.82,29.69,10,10,10,26,16,38,0.00,0,,154
2013-10-11,75,62,49,57,49,39,84,59,33,29.89,29.65,29.52,10,10,10,32,18,41,0.01,2,Rain,199
2013-10-12,65,50,35,38,32,27,76,50,24,30.30,30.12,29.90,10,10,10,23,8,28,0.00,0,,285
2013-10-13,69,50,31,37,32,28,92,59,26,30.42,30.34,30.27,10,10,10,20,8,25,T,1,,138
2013-10-14,57,51,45,54,46,37,100,76,51,30.25,29.92,29.67,10,6,1,28,15,36,2.34,8,Rain-Thunderstorm,121
2013-10-15,49,45,41,44,38,35,89,80,70,30.11,29.97,29.77,10,9,2,30,19,38,T,8,Rain,297
2013-10-16,57,46,35,37,35,31,92,65,38,30.11,30.05,29.96,10,10,10,15,6,21,0.00,4,,299
2013-10-17,52,41,30,39,35,30,92,78,63,30.10,29.98,29.90,10,10,8,25,11,32,0.00,4,,312
2013-10-18,53,41,29,34,29,24,92,64,35,30.16,30.09,30.01,10,10,10,15,8,22,T,3,,276
2013-10-19,62,48,34,37,32,28,82,58,33,29.99,29.88,29.80,10,10,10,18,8,23,0.00,3,,255
2013-10-20,63,48,33,39,36,30,89,63,36,30.06,29.83,29.71,10,10,10,32,12,43,0.00,4,,301
2013-10-21,56,43,29,38,32,28,92,65,38,30.11,30.04,29.94,10,10,10,15,4,18,T,5,,283
2013-10-22,48,39,29,43,36,28,92,79,65,30.15,30.00,29.88,10,10,10,25,10,32,T,7,Rain,326
2013-10-23,48,39,29,39,34,27,100,85,70,30.26,30.14,30.05,10,10,7,17,6,20,0.02,7,Rain,3
2013-10-24,50,39,27,30,25,20,92,62,31,30.43,30.37,30.23,10,10,10,15,5,20,0.00,1,,306
2013-10-25,60,43,26,29,26,23,85,75,64,30.40,30.21,30.02,10,10,10,12,5,,0.00,3,,198
2013-10-26,50,41,31,27,25,24,78,59,39,30.25,30.16,30.01,10,10,7,21,9,30,0.00,0,,316
2013-10-27,71,52,32,40,32,24,70,49,28,30.12,29.94,29.81,10,10,10,20,7,26,0.00,0,,200
2013-10-28,48,43,37,36,33,30,76,68,60,30.25,30.17,30.03,10,10,9,22,14,30,0.14,3,Rain-Thunderstorm,55
2013-10-29,44,42,39,43,39,36,100,93,86,30.20,30.06,29.97,10,4,1,13,7,16,0.16,8,Rain,43
2013-10-30,44,37,30,40,37,31,100,91,82,30.03,29.90,29.81,10,8,2,13,6,16,0.06,7,Rain,319
2013-10-31,57,43,28,40,32,27,100,73,46,29.78,29.66,29.53,10,7,0,24,7,32,0.00,2,Fog,287